sat.trackr.live / text

‹ back to catalog

EUTELSAT 5 WEST B (EGN*)

NORAD 44624 · 2019-067A

PAYLOAD ACTIVE UNKNOWN

§ Identity

Operator
Country
EUTE
Launch date
2019-10-09
Launch site
TYMSC
Launch vehicle
Mass (kg)
RCS (m²)

Purposes: comms, nav

External: N2YO · Heavens-Above · Gunter

§ Orbital elements

Epoch: 2026-05-25T03:43:09.902208Z

Period
1,436.10 min
Inclination
0.0659°
Eccentricity
0.0003132
Mean motion
1.00271513 rev/d
Perigee alt
35,773.5 km
Apogee alt
35,799.9 km
Semi-major
42,164.8 km
B*
0.0000e+0
RAAN
340.1149°
Arg perigee
80.1938°
Mean anomaly
233.2215°
Rev number
2,420

§ Raw data

EUTELSAT 5 WEST B (EGN*)1 44624U 19067A   26145.15497572 -.00000045  00000+0  00000+0 0  99992 44624   0.0659 340.1149 0003132  80.1938 233.2215  1.00271513 24208

JSON: /api/v1/satellites/44624 · /tle

For live sub-satellite position, see the globe view (requires WebGL).

§ Visibility from observer

Set your observer location to see the next 7 days of passes ≥ 10°. The values pass through the URL so the page stays shareable.

No JS? Fill the form by hand. The geolocation button needs JavaScript.